Location: Nitra
(0.0000°N, 18.0833°E)
Time: 16:56:58
(UTC+02:00)

A-11 Canister half - Pass Details

Date: 30 March 2023
Orbit: 1513 x 1686 km, 47.2° (Epoch: 02 June)

Event Time Altitude Azimuth Distance (km) Brightness Sun altitude
Exits shadow 04:02:39 - 347° (NNW) 4,576 11.4 -42.3°
Reaches altitude 10° 04:05:21 10° 357° (N) 3,934 11.1 -41.6°
Maximum altitude 04:13:04 25° 47° (NE) 2,923 10.8 -39.7°
Drops below altitude 10° 04:20:37 10° 98° (E) 3,873 11.8 -37.8°
Sets 04:24:31 0° 110° (ESE) 4,835 12.4 -36.9°
